Weather History for KPKD - October, 2013

Change the Weather History Date:

Saturday, October 12, 2013

  Actual Average Record
Temperature  
Mean Temperature 44 °F -  
Max Temperature 51 °F 56 °F 84 °F (1956)
Min Temperature 37 °F 33 °F 19 °F (1993)
Degree Days  
Heating Degree Days 21    
Moisture  
Dew Point 44 °F    
Average Humidity 94    
Maximum Humidity 100    
Minimum Humidity 80    
Precipitation  
Precipitation 0.02 in - - ()
Sea Level Pressure  
Sea Level Pressure 29.82 in    
Wind  
Wind Speed 14 mph (WSW)    
Max Wind Speed 18 mph    
Max Gust Speed 29 mph    
Visibility 7 miles    
Events Rain    
Averages and records for this station are not official NWS values.
T = Trace of Precipitation, MM = Missing Value Source: NWS Daily Summary

Daily Weather History Graph

Daily Weather History Graph

Search for Another Location

Airport or City:

Trip Planner

Search our weather history database for the weather conditions in past years. The results will help you decide how hot, cold, wet, or windy it might be!

Date:

Astronomy

Oct. 12, 2013 Rise Set
Actual Time 7:34 AM CDT 6:38 PM CDT
Civil Twilight 7:03 AM CDT 7:08 PM CDT
Nautical Twilight 6:28 AM CDT 7:43 PM CDT
Astronomical Twilight 5:53 AM CDT 8:18 PM CDT
Moon 3:09 PM CDT (10/12) 12:15 AM CDT (10/12)
Length of Visible Light 12h 04m
Length of Day
11h 03m
First Quarter, 59% of the Moon is Illuminated
Oct 12
First Quarter
Oct 18
Full
Oct 26
Last Quarter
Nov 3
New
Nov 9
First Quarter

Hourly Weather History & Observations

Time (CDT) Temp. Windchill Dew Point Humidity Pressure Visibility Wind Dir Wind Speed Gust Speed Precip Events Conditions
12:53 AM 51.1 °F - 45.0 °F 80% 29.55 in 10.0 mi SSW 18.4 mph 28.8 mph N/A   Overcast
1:53 AM 50.0 °F - 44.1 °F 80% 29.57 in 10.0 mi SSW 18.4 mph 25.3 mph N/A   Overcast
2:53 AM 48.9 °F - 44.1 °F 83% 29.59 in 10.0 mi South 17.3 mph - N/A   Overcast
3:18 AM 48.2 °F - 44.6 °F 87% 29.58 in 10.0 mi South 17.3 mph 27.6 mph N/A   Overcast
3:53 AM 46.9 °F - 46.0 °F 97% 29.60 in 9.0 mi SSW 15.0 mph 23.0 mph N/A   Overcast
4:53 AM 48.0 °F - 45.0 °F 89% 29.61 in 10.0 mi SSW 17.3 mph 24.2 mph N/A   Overcast
5:53 AM 48.0 °F - 45.0 °F 89% 29.62 in 10.0 mi SSW 11.5 mph 23.0 mph N/A   Overcast
6:53 AM 48.0 °F - 44.1 °F 86% 29.64 in 10.0 mi SSW 17.3 mph 23.0 mph N/A   Overcast
7:53 AM 46.9 °F - 45.0 °F 93% 29.65 in 7.0 mi SSW 16.1 mph - N/A   Overcast
8:12 AM 46.4 °F 40.4 °F 46.4 °F 100% 29.65 in 6.0 mi SSW 13.8 mph - N/A   Overcast
8:39 AM 46.4 °F 40.7 °F 46.4 °F 100% 29.66 in 2.5 mi SSW 12.7 mph - N/A   Overcast
8:53 AM 46.9 °F - 46.0 °F 97% 29.68 in 2.0 mi SW 11.5 mph - N/A   Overcast
9:20 AM 46.4 °F 41.5 °F 46.4 °F 100% 29.67 in 3.0 mi SW 10.4 mph - N/A   Overcast
9:30 AM 46.4 °F 41.1 °F 46.4 °F 100% 29.68 in 2.5 mi SW 11.5 mph - N/A   Overcast
9:45 AM 46.4 °F 40.4 °F 46.4 °F 100% 29.68 in 3.0 mi SW 13.8 mph - 0.01 in   Overcast
9:53 AM 48.0 °F - 46.0 °F 93% 29.70 in 4.0 mi SW 13.8 mph - 0.01 in   Overcast
10:35 AM 48.2 °F - 46.4 °F 93% 29.70 in 6.0 mi WSW 13.8 mph - N/A   Overcast
10:45 AM 48.2 °F - 46.4 °F 93% 29.71 in 6.0 mi WSW 16.1 mph - N/A   Overcast
10:53 AM 48.0 °F - 46.9 °F 96% 29.73 in 8.0 mi WSW 15.0 mph - N/A   Overcast
11:08 AM 48.2 °F - 46.4 °F 93% 29.72 in 4.0 mi WSW 12.7 mph - N/A   Overcast
11:16 AM 48.2 °F - 46.4 °F 93% 29.72 in 4.0 mi WSW 13.8 mph - 0.00 in Rain Light Rain
11:38 AM 48.2 °F - 46.4 °F 93% 29.73 in 6.0 mi West 11.5 mph - 0.00 in   Overcast
11:53 AM 48.0 °F - 46.9 °F 96% 29.76 in 6.0 mi West 15.0 mph - 0.00 in   Overcast
12:08 PM 46.4 °F 39.5 °F 44.6 °F 93% 29.76 in 7.0 mi West 17.3 mph - N/A   Overcast
12:14 PM 46.4 °F 39.2 °F 44.6 °F 93% 29.76 in 10.0 mi West 18.4 mph - N/A   Overcast
12:53 PM 46.9 °F - 45.0 °F 93% 29.81 in 10.0 mi West 18.4 mph 24.2 mph N/A   Overcast
1:30 PM 48.2 °F - 44.6 °F 87% 29.80 in 10.0 mi WNW 17.3 mph - N/A   Overcast
1:53 PM 46.9 °F - 44.1 °F 90% 29.83 in 10.0 mi WNW 13.8 mph - N/A   Overcast
2:53 PM 46.9 °F - 43.0 °F 86% 29.88 in 10.0 mi WNW 16.1 mph - 0.00 in   Overcast
3:27 PM 46.4 °F 40.4 °F 44.6 °F 93% 29.87 in 7.0 mi WNW 13.8 mph - 0.01 in Rain Light Rain
3:45 PM 46.4 °F 40.4 °F 44.6 °F 93% 29.88 in 10.0 mi WNW 13.8 mph 21.9 mph 0.01 in   Overcast
3:53 PM 46.0 °F 39.3 °F 44.1 °F 93% 29.91 in 10.0 mi WNW 16.1 mph 23.0 mph 0.01 in Rain Light Rain
4:53 PM 46.0 °F 39.3 °F 44.1 °F 93% 29.95 in 10.0 mi WNW 16.1 mph - 0.00 in Rain Light Rain
5:01 PM 46.4 °F 40.4 °F 44.6 °F 93% 29.93 in 10.0 mi WNW 13.8 mph - 0.00 in Rain Light Rain
5:53 PM 46.0 °F 39.9 °F 43.0 °F 89% 29.99 in 10.0 mi WNW 13.8 mph - 0.00 in   Overcast
6:29 PM 46.4 °F 41.1 °F 42.8 °F 87% 29.98 in 10.0 mi West 11.5 mph - N/A   Overcast
6:53 PM 45.0 °F 40.1 °F 43.0 °F 93% 30.03 in 10.0 mi West 9.2 mph - N/A   Overcast
7:53 PM 44.1 °F 40.8 °F 43.0 °F 96% 30.06 in 10.0 mi West 5.8 mph - N/A   Overcast
8:53 PM 42.1 °F 40.2 °F 42.1 °F 100% 30.09 in 10.0 mi NW 3.5 mph - N/A   Mostly Cloudy
9:36 PM 39.2 °F 37.0 °F 39.2 °F 100% 30.08 in 1.8 mi West 3.5 mph - N/A   Clear
9:53 PM 37.9 °F 34.4 °F 37.9 °F 100% 30.13 in 1.0 mi WSW 4.6 mph - N/A   Clear
10:00 PM 37.4 °F 33.8 °F 37.4 °F 100% 30.09 in 0.8 mi WSW 4.6 mph - N/A   Clear
10:19 PM 37.4 °F 32.1 °F 37.4 °F 100% 30.10 in 2.0 mi West 6.9 mph - N/A   Mostly Cloudy
10:26 PM 37.4 °F 32.1 °F 37.4 °F 100% 30.10 in 9.0 mi West 6.9 mph - N/A   Mostly Cloudy
10:53 PM 39.9 °F 35.1 °F 39.9 °F 100% 30.16 in 10.0 mi West 6.9 mph - N/A   Overcast
11:53 PM 39.0 °F 35.7 °F 39.0 °F 100% 30.18 in 10.0 mi West 4.6 mph - N/A   Mostly Cloudy